Location: Newark
(9.4667°S, 159.8167°E)
Time: 14:00:46
(UTC+00:00)

Courier 1B Rocket - Pass Details

Date: 21 November 2019
Orbit: 920 x 1202 km, 28.2° (Epoch: 12 December)

Event Time Altitude Azimuth Distance (km) Brightness Sun altitude
Rises 15:06:46 0° 262° (W) 3,991 - -48.3°
Reaches altitude 10° 15:10:17 10° 249° (WSW) 2,987 - -47.7°
Maximum altitude 15:15:58 24° 198° (SSW) 2,065 - -46.7°
Exits shadow 15:19:01 18° 163° (SSE) 2,317 7.3 -46.1°
Drops below altitude 10° 15:21:23 10° 146° (SE) 2,823 7.9 -45.7°
Sets 15:24:36 0° 132° (SE) 3,726 8.8 -45.1°
